Location: *
(49.9853°N, 3.5569°E)
Time: 17:05:46
(UTC+00:00)

CZ-4 R/B - Pass Details

Date: 22 September 2019
Orbit: 531 x 599 km, 97.8° (Epoch: 21 October)

Event Time Altitude Azimuth Distance (km) Brightness Sun altitude
Rises 18:08:47 0° 175° (S) 2,687 4.7 -4.7°
Reaches altitude 10° 18:10:54 10° 179° (S) 1,808 3.9 -5.0°
Maximum altitude 18:14:45 58° 259° (W) 648 2.1 -5.6°
Drops below altitude 10° 18:18:43 10° 339° (NNW) 1,860 4.4 -6.3°
Sets 18:20:56 0° 344° (NNW) 2,773 5.3 -6.6°
